Regional Weather Roundup
Issued by NWS Newport/Morehead, NC

Current Version | Previous Version | Text Only | Print | Product List | Glossary On
Versions: 1 2 3 4 5 6 7 8 9 10 11 12 13 14 15 16 17 18 19 20 21 22 23 24 25 26 27 28 29 30 31 32 33 34 35 36 37 38 39 40 41 42 43 44 45 46 47 48 49 50
000
ASUS42 KMHX 040612
RWRMHX
WEATHER ROUNDUP FOR EASTERN NORTH CAROLINA
NATIONAL WEATHER SERVICE NEWPORT/MOREHEAD CITY NC
200 AM EDT MON MAY 04 2015

NOTE: "FAIR" INDICATES FEW OR NO CLOUDS BELOW 12,000 FEET
WITH NO SIGNIFICANT WEATHER AND/OR OBSTRUCTIONS TO VISIBILITY

NCZ015>017-031-032-045>047-102-103-040700-
NORTH COAST

CITY           SKY/WX    TMP DP  RH WIND       PRES   REMARKS
EDENTON        CLEAR     62  51  66 SW3       30.25R
ELIZABETH CITY CLEAR     56  49  77 SW8       30.23S
KITTY HAWK     CLEAR     61  51  69 SW5       30.23S
MANTEO         CLEAR     62  51  66 SW7       30.25S

$$

NCZ045>047-081-094-103-104-040700-
CENTRAL COAST

CITY           SKY/WX    TMP DP  RH WIND       PRES   REMARKS
FRISCO         PTCLDY    59  51  75 W7        30.25S
SWANQUARTER      N/A     63 N/A N/A W2        30.21S

$$

NCZ095-097-098-100-101-040700-
SOUTHERN COAST

CITY           SKY/WX    TMP DP  RH WIND       PRES   REMARKS
BEAUFORT       CLEAR     58  57  97 CALM      30.26S
CEDAR ISLAND     N/A     63 N/A N/A SW3       30.30S
JACKSONVILLE   CLEAR     54  52  93 CALM      30.25S
PINEY ISLAND   MOCLDY   N/A N/A N/A SW7       30.25S
WILMINGTON     CLEAR     56  53  90 CALM      30.25S


$$

NCZ011>013-027>030-043-044-078>080-089-090>093-098-040700-
COASTAL PLAIN

CITY           SKY/WX    TMP DP  RH WIND       PRES   REMARKS
AHOSKIE          N/A     54  48  81 CALM      30.24S
CLINTON        CLEAR     54  49  83 CALM      30.26S
ELIZABETHTOWN  CLEAR     57  52  81 CALM      30.25S
GOLDSBORO      CLEAR     57  48  73 CALM      30.23S
GREENVILLE     CLEAR     57  50  77 SW5       30.26R
HAVELOCK       CLEAR     53  50  89 CALM      30.27S
KENANSVILLE    CLEAR     50  47  92 CALM      30.27S
KINSTON        CLEAR     56  49  77 CALM      30.26S
NEW BERN       CLEAR     57  52  83 CALM      30.26S
RICHLANDS      CLEAR     50  45  81 CALM      30.26S
ROCKY MOUNT    CLEAR     56  47  71 S3        30.24S
WASHINGTON       N/A     59  50  72 SW3       30.25S
WHITEVILLE     PTCLDY    55  53  90 CALM      30.24S

$$

AMZ130-135-150-152-154-156-158-170-250-252-270-ANZ085-086-088-633-658-670-040700-
MARINE OBSERVATIONS

STATION/POSITION TIME  TEMP    WIND        PRES    WAVE   SWELL
                       AIR SEA DIR/SP/G            HT/PER HT/PER
                 (UTC) (F)     (DEG/KT/KT) (MB)    (FT/S) (FT/S)
CHESAPEAKE LIGHT 0500   64     220/ 18/ 19 1023.3
64 E VA BEACH    0550   63 61  240/ 12/ 16 1023.1    5/10   5/10
DUCK             0512   65 55  210/  8/ 10 1022.8
2 E DUCK         0511      55                N/A     4/10   2/11
OREGON INLET     0512   64 62  230/  7/  8 1024.0
13E OREGON INLT  0600      56                N/A     3/11   2/11
HATTERAS CG      0512   64 62  240/  5/  7 1023.8
DIAMOND BUOY     0550   63 60  260/  6/  6 1024.3    4/11   3/11
CAPE LOOKOUT     0600   67     230/  6/  7 1024.2
BEAUFORT LAB     0512   63 64   CALM  /  1 1023.7
27 SE WRIGHTSVLE 0500   69 71  190/  8/  8   N/A
5 SE WRIGHTSVLE  0508   68 67  200/  4/  6 1024.4
225 S CAPE HAT   0550   68 70   60/ 10/ 12 1024.3    7/11   7/11
41 SE CHARLESTON 0550   73 73  150/ 10/ 12 1023.5    3/11   2/11

$$



USA.gov is the U.S. government's official web portal to all federal, state and local government web resources and services.